Location: Unspecified
(0.0000°N, 0.0000°E)
Time: 06:50:58
(UTC+00:00)

Transit 4A - Pass Details

Date: 04 October 2023
Orbit: 864 x 979 km, 66.8° (Epoch: 05 December)

Event Time Altitude Azimuth Distance (km) Brightness Sun altitude
Rises 09:00:27 0° 208° (SSW) 3,545 10.8 47.7°
Reaches altitude 10° 09:02:59 10° 213° (SSW) 2,618 10.2 48.4°
Maximum altitude 09:08:56 56° 289° (WNW) 1,111 8.6 49.8°
Drops below altitude 10° 09:15:03 10° 7° (N) 2,682 10.4 51.3°
Sets 09:17:40 0° 11° (N) 3,638 11.0 52.0°
